| time (UTC) | temp C | wind direction | speed KPH | gust KPH | rain 1hr cm | rain 24hr cm | rain mn cm | humidity % | barometer mb |
| 20260507040033 | 16 | 68 | 0.0 | 0.0 | 0.00 | 0.00 | 0.00 | 69 | 1016.9 |
| 20260507034541 | 17 | 68 | 0.0 | 0.0 | 0.00 | 0.00 | 0.00 | 67 | 1016.6 |
| 20260507033030 | 17 | 68 | 0.0 | 0.0 | 0.00 | 0.00 | 0.00 | 66 | 1016.4 |
| 20260507031529 | 18 | 68 | 0.0 | 0.0 | 0.00 | 0.00 | 0.00 | 65 | 1016.2 |
| 20260507030029 | 18 | 68 | 0.0 | 0.0 | 0.00 | 0.00 | 0.00 | 63 | 1016.0 |
| 20260507024531 | 19 | 65 | 0.0 | 0.0 | 0.00 | 0.00 | 0.00 | 62 | 1015.8 |
| 20260507023028 | 20 | 65 | 0.0 | 0.0 | 0.00 | 0.00 | 0.00 | 60 | 1015.6 |
| 20260507021527 | 20 | 65 | 0.0 | 4.8 | 0.00 | 0.00 | 0.00 | 58 | 1015.6 |
| 20260507020030 | 21 | 67 | 0.0 | 0.0 | 0.00 | 0.00 | 0.00 | 56 | 1015.5 |
| 20260507014527 | 21 | 65 | 0.0 | 0.0 | 0.00 | 0.00 | 0.00 | 54 | 1015.4 |
| 20260507013025 | 22 | 62 | 0.0 | 0.0 | 0.00 | 0.00 | 0.00 | 53 | 1015.5 |
| 20260507011526 | 22 | 61 | 0.0 | 0.0 | 0.00 | 0.00 | 0.00 | 52 | 1015.5 |
| 20260507010032 | 23 | 54 | 0.0 | 0.0 | 0.00 | 0.00 | 0.00 | 52 | 1015.5 |
| 20260507004522 | 22 | 60 | 0.0 | 0.0 | 0.00 | 0.00 | 0.00 | 53 | 1015.5 |
| 20260507003021 | 23 | 54 | 0.0 | 6.4 | 0.00 | 0.00 | 0.00 | 53 | 1015.5 |
| 20260507001523 | 23 | 29 | 1.6 | 6.4 | 0.00 | 0.00 | 0.00 | 52 | 1015.4 |
| 20260507000022 | 23 | 65 | 0.0 | 6.4 | 0.00 | 0.00 | 0.00 | 52 | 1015.4 |
| 20260506234538 | 24 | 101 | 1.6 | 9.7 | 0.00 | 0.00 | 0.00 | 50 | 1015.5 |
| 20260506233020 | 25 | 55 | 1.6 | 6.4 | 0.00 | 0.00 | 0.00 | 49 | 1015.3 |
| 20260506231519 | 25 | 34 | 0.0 | 9.7 | 0.00 | 0.00 | 0.00 | 49 | 1015.4 |
| 20260506230018 | 25 | 81 | 1.6 | 9.7 | 0.00 | 0.00 | 0.00 | 49 | 1015.4 |
| 20260506224525 | 25 | 65 | 1.6 | 12.9 | 0.00 | 0.00 | 0.00 | 50 | 1015.6 |
| 20260506223014 | 25 | 23 | 3.2 | 12.9 | 0.00 | 0.00 | 0.00 | 49 | 1015.8 |
| 20260506221514 | 25 | 355 | 3.2 | 8.0 | 0.00 | 0.00 | 0.00 | 49 | 1015.8 |
| 20260506220027 | 25 | 99 | 3.2 | 11.3 | 0.00 | 0.00 | 0.00 | 51 | 1016.2 |
| 20260506214510 | 25 | 53 | 3.2 | 12.9 | 0.00 | 0.00 | 0.00 | 49 | 1016.5 |
| 20260506213007 | 25 | 80 | 1.6 | 6.4 | 0.00 | 0.00 | 0.00 | 50 | 1016.5 |
| 20260506211511 | 25 | 124 | 1.6 | 8.0 | 0.00 | 0.00 | 0.00 | 51 | 1016.6 |
| 20260506210005 | 25 | 49 | 1.6 | 8.0 | 0.00 | 0.00 | 0.00 | 51 | 1016.8 |
| 20260506204503 | 25 | 71 | 1.6 | 6.4 | 0.00 | 0.00 | 0.00 | 51 | 1016.8 |
| 20260506203001 | 25 | 33 | 0.0 | 6.4 | 0.00 | 0.00 | 0.00 | 50 | 1016.8 |
| 20260506201600 | 25 | 38 | 1.6 | 9.7 | 0.00 | 0.00 | 0.00 | 48 | 1017.0 |
| 20260506200057 | 25 | 87 | 1.6 | 9.7 | 0.00 | 0.00 | 0.00 | 48 | 1017.3 |
| 20260506194555 | 24 | 101 | 1.6 | 9.7 | 0.00 | 0.00 | 0.00 | 45 | 1017.1 |
| 20260506193056 | 24 | 103 | 1.6 | 9.7 | 0.00 | 0.00 | 0.00 | 46 | 1017.4 |
| 20260506191552 | 23 | 68 | 0.0 | 8.0 | 0.00 | 0.00 | 0.00 | 46 | 1017.6 |
| 20260506190046 | 23 | 61 | 0.0 | 4.8 | 0.00 | 0.00 | 0.00 | 48 | 1017.7 |
| 20260506184544 | 22 | 129 | 1.6 | 6.4 | 0.00 | 0.00 | 0.00 | 49 | 1017.8 |
| 20260506183043 | 22 | 115 | 1.6 | 9.7 | 0.00 | 0.00 | 0.00 | 48 | 1018.0 |
| 20260506181550 | 22 | 34 | 1.6 | 6.4 | 0.00 | 0.00 | 0.00 | 48 | 1018.2 |
| 20260506180036 | 21 | 59 | 1.6 | 6.4 | 0.00 | 0.00 | 0.00 | 50 | 1018.2 |
| 20260506174532 | 21 | 58 | 1.6 | 6.4 | 0.00 | 0.00 | 0.00 | 52 | 1018.2 |
| 20260506173030 | 20 | 70 | 0.0 | 4.8 | 0.00 | 0.00 | 0.00 | 53 | 1018.2 |
| 20260506171526 | 19 | 101 | 1.6 | 6.4 | 0.00 | 0.00 | 0.00 | 57 | 1018.3 |
| 20260506170018 | 18 | 56 | 0.0 | 3.2 | 0.00 | 0.00 | 0.00 | 58 | 1018.3 |
| 20260506164516 | 17 | 55 | 0.0 | 0.0 | 0.00 | 0.00 | 0.00 | 63 | 1018.3 |
| 20260506163012 | 16 | 54 | 0.0 | 3.2 | 0.00 | 0.00 | 0.00 | 66 | 1018.3 |
| 20260506161505 | 15 | 51 | 1.6 | 4.8 | 0.00 | 0.00 | 0.00 | 71 | 1018.3 |
| 20260506160001 | 14 | 51 | 0.0 | 0.0 | 0.00 | 0.00 | 0.00 | 74 | 1018.4 |
| 20260506154556 | 13 | 49 | 0.0 | 4.8 | 0.00 | 0.00 | 0.00 | 79 | 1018.3 |
| 20260506153053 | 12 | 49 | 0.0 | 4.8 | 0.00 | 0.00 | 0.00 | 82 | 1018.4 |
| 20260506151548 | 11 | 49 | 0.0 | 3.2 | 0.00 | 0.00 | 0.00 | 85 | 1018.5 |
| 20260506150050 | 10 | 49 | 0.0 | 0.0 | 0.00 | 0.00 | 0.00 | 88 | 1018.5 |
| 20260506144550 | 9 | 49 | 0.0 | 1.6 | 0.00 | 0.00 | 0.00 | 90 | 1018.5 |
| 20260506143045 | 8 | 49 | 0.0 | 0.0 | 0.00 | 0.00 | 0.00 | 90 | 1018.5 |
| 20260506141544 | 8 | 49 | 0.0 | 0.0 | 0.00 | 0.00 | 0.00 | 90 | 1018.4 |
| 20260506140042 | 8 | 49 | 0.0 | 0.0 | 0.00 | 0.00 | 0.00 | 89 | 1018.3 |
| 20260506134543 | 7 | 49 | 0.0 | 0.0 | 0.00 | 0.00 | 0.00 | 89 | 1018.3 |
| 20260506133040 | 7 | 49 | 0.0 | 0.0 | 0.00 | 0.00 | 0.00 | 92 | 1018.3 |
| 20260506131549 | 7 | 49 | 0.0 | 0.0 | 0.00 | 0.00 | 0.00 | 87 | 1018.1 |
| 20260506130040 | 8 | 49 | 0.0 | 0.0 | 0.00 | 0.00 | 0.00 | 88 | 1018.0 |
| 20260506124534 | 8 | 49 | 0.0 | 0.0 | 0.00 | 0.00 | 0.00 | 87 | 1017.9 |
| 20260506123032 | 8 | 49 | 0.0 | 0.0 | 0.00 | 0.00 | 0.00 | 87 | 1017.8 |
| 20260506121531 | 8 | 49 | 0.0 | 0.0 | 0.00 | 0.00 | 0.00 | 87 | 1017.7 |
| 20260506120030 | 8 | 49 | 0.0 | 0.0 | 0.00 | 0.00 | 0.00 | 86 | 1017.6 |
| 20260506114528 | 8 | 49 | 0.0 | 0.0 | 0.00 | 0.00 | 0.00 | 86 | 1017.6 |
| 20260506113027 | 8 | 49 | 0.0 | 0.0 | 0.00 | 0.00 | 0.00 | 86 | 1017.5 |
| 20260506111526 | 8 | 49 | 0.0 | 0.0 | 0.00 | 0.00 | 0.00 | 87 | 1017.5 |
| 20260506110025 | 9 | 49 | 0.0 | 0.0 | 0.00 | 0.00 | 0.00 | 86 | 1017.3 |
| 20260506104524 | 9 | 49 | 0.0 | 0.0 | 0.00 | 0.00 | 0.00 | 86 | 1017.3 |
| 20260506103034 | 9 | 49 | 0.0 | 0.0 | 0.00 | 0.00 | 0.00 | 86 | 1017.4 |
| 20260506101523 | 9 | 49 | 0.0 | 0.0 | 0.00 | 0.00 | 0.00 | 85 | 1017.3 |
| 20260506100020 | 9 | 49 | 0.0 | 0.0 | 0.00 | 0.00 | 0.00 | 86 | 1017.3 |
| 20260506094519 | 10 | 49 | 0.0 | 0.0 | 0.00 | 0.00 | 0.00 | 86 | 1017.4 |
| 20260506093016 | 10 | 49 | 0.0 | 0.0 | 0.00 | 0.00 | 0.00 | 86 | 1017.5 |
| 20260506091515 | 10 | 49 | 0.0 | 0.0 | 0.00 | 0.00 | 0.00 | 86 | 1017.5 |
| 20260506090013 | 10 | 49 | 0.0 | 0.0 | 0.00 | 0.00 | 0.00 | 86 | 1017.7 |
| 20260506084512 | 10 | 49 | 0.0 | 0.0 | 0.00 | 0.00 | 0.00 | 85 | 1017.5 |
| 20260506083010 | 10 | 49 | 0.0 | 0.0 | 0.00 | 0.00 | 0.00 | 85 | 1017.5 |
| 20260506081509 | 10 | 49 | 0.0 | 0.0 | 0.00 | 0.00 | 0.00 | 85 | 1017.6 |
| 20260506073007 | 10 | 49 | 0.0 | 0.0 | 0.00 | 0.00 | 0.00 | 83 | 1017.7 |
| 20260506071502 | 11 | 49 | 0.0 | 0.0 | 0.00 | 0.00 | 0.00 | 82 | 1017.6 |
| 20260506061554 | 11 | 49 | 0.0 | 0.0 | 0.00 | 0.00 | 0.00 | 82 | 1016.8 |
| 20260506060117 | 11 | 49 | 0.0 | 0.0 | 0.00 | 0.00 | 0.00 | 82 | 1016.8 |
| 20260506044559 | 13 | 49 | 0.0 | 0.0 | 0.00 | 0.00 | 0.00 | 78 | 1016.1 |
| 20260506043046 | 13 | 49 | 0.0 | 0.0 | 0.00 | 0.00 | 0.00 | 75 | 1015.9 |
| 20260506041547 | 13 | 49 | 0.0 | 0.0 | 0.00 | 0.00 | 0.00 | 74 | 1015.8 |